This is the latest recevied weather packets stored in our database for station/object IN3MWE-10. If no packets are shown the sender has not sent any weather packets the latest 10 day(s).
| Time | Temp. | Humidity | Pressure | Rain* | Wind** | Luminosity | Snow |
|---|---|---|---|---|---|---|---|
| 1788514518 | 28.33° C | 37% | 984.3 hPa | - | - | - | - |
| 1788513617 | 27.78° C | 39% | 984.5 hPa | - | - | - | - |
| 1788512717 | 28.33° C | 37% | 984.6 hPa | - | - | - | - |
| 1788511817 | 26.67° C | 39% | 984.7 hPa | - | - | - | - |
| 1788510917 | 29.44° C | 36% | 984.8 hPa | - | - | - | - |
| 1788510017 | 29.44° C | 36% | 985 hPa | - | - | - | - |
| 1788509117 | 28.33° C | 38% | 985.2 hPa | - | - | - | - |
| 1788508217 | 26.11° C | 45% | 985.4 hPa | - | - | - | - |
| 1788507317 | 24.44° C | 57% | 985.5 hPa | - | - | - | - |
| 1788506416 | 19.44° C | 75% | 985.8 hPa | - | - | - | - |
| 1788505516 | 18.33° C | 81% | 986.1 hPa | - | - | - | - |
| 1788504630 | 18.89° C | 78% | 986.2 hPa | - | - | - | - |
| 1788503716 | 18.33° C | 80% | 986.3 hPa | - | - | - | - |
| 1788502816 | 18.33° C | 80% | 986.1 hPa | - | - | - | - |
| 1788501916 | 18.33° C | 81% | 986.1 hPa | - | - | - | - |
| 1788501016 | 18.33° C | 79% | 986 hPa | - | - | - | - |
| 1788500115 | 18.33° C | 76% | 986 hPa | - | - | - | - |
| 1788499215 | 18.33° C | 77% | 986 hPa | - | - | - | - |
| 1788498315 | 18.33° C | 76% | 985.8 hPa | - | - | - | - |
| 1788497415 | 18.33° C | 73% | 985.6 hPa | - | - | - | - |
| 1788496515 | 18.33° C | 75% | 985.6 hPa | - | - | - | - |
| 1788495615 | 18.89° C | 71% | 985.3 hPa | - | - | - | - |
| 1788494715 | 18.89° C | 70% | 985.2 hPa | - | - | - | - |
| 1788493814 | 18.33° C | 72% | 985.2 hPa | - | - | - | - |
| 1788492914 | 19.44° C | 72% | 985.3 hPa | - | - | - | - |
* Rain since midnight (hover to see other rain measurements)
** Current wind speed in m/s (hover to see current wind gust speed)